4 K SANS PALMES - 10/09/2021

CLASSEMENT PROVISOIRE


Pos. Dos. Nom Prénom Sx Temps
1 1190 Remy Jules H 54:55,22
2 1204 ROMERA Frédéric H 01:00:51,18
3 1120 Loyer Gabriel H 01:01:23,15
4 966 Davy Eric H 01:02:21,52
5 849 AMAR ALAIN H 01:02:27,59
6 1134 Metais Loïc H 01:03:03,25
7 1167 PERROT Stephan H 01:03:35,26
8 1129 Martineau Laurent H 01:07:07,76
9 1239 Thery Vincent H 01:07:49,06
10 869 BALLESTER Jean-Baptiste H 01:09:28,90
11 851 Antonelli Nicolas H 01:09:35,16
12 1291 Lamour Florence F 01:10:04,17
13 1187 Raimbault Céline F 01:10:21,08
14 914 CAMOZ damien H 01:11:24,74
15 1282 Melquiond olivier H 01:11:40,70
16 906 BREGEAT Olivier H 01:13:38,41
17 863 AUXOIS SEBASTIEN H 01:13:42,14
18 1152 PAN FREDERIC H 01:13:44,57
19 1003 Fatseas Jules H 01:14:06,49
20 847 Allais Remy H 01:14:15,04
21 1294 doudet loic H 01:14:28,86
22 941 Chaumin Pierre H 01:15:07,73
23 1207 Rousseau Christel F 01:15:14,83
24 1269 LE VACON ILONA F 01:15:17,51
25 1136 Meunier Robin H 01:15:18,59
26 868 Baillet Vincent H 01:15:36,13
27 1206 Ronflé Romain H 01:15:54,81
28 1048 Gouas Mathieu H 01:16:03,98
29 1142 Morvan Pauline F 01:16:57,87
30 1013 FOURNIER Christophe H 01:17:15,83
31 1109 LEO SYLVAIN H 01:17:28,87
32 1286 Lhopitallier Laurent H 01:17:44,66
33 1232 Szczot Antoine H 01:17:48,33
34 887 BLAY MAXIME H 01:17:57,58
35 1285 Fardouin Maxime H 01:18:43,37
36 1183 Prado Augustin H 01:18:59,87
37 1018 GAILLARD MARION F 01:19:32,23
38 1288 Dufour Zoé F 01:19:40,16
39 1229 STUTZMANN Jacques H 01:19:46,17
40 1144 Moussu Marine F 01:19:54,26
41 905 Braun Anna F 01:19:55,96
42 1208 Rovera Myriam F 01:20:00,68
43 893 Bonino Rodolphe H 01:20:01,91
44 1267 Yedutenko Yurii H 01:20:17,31
45 981 DELMOTTE Clara F 01:20:22,59
46 1241 Tollemans Antoine H 01:20:24,86
47 1186 Quintini Pierre H 01:20:29,74
48 1121 Luciani Sebastien H 01:20:32,30
49 873 Barriau Thierry H 01:20:44,04
50 1140 MILLIET Francois-Xavier H 01:21:02,88
51 1154 Pannier Florian H 01:21:26,25
52 1148 Nocture François H 01:21:57,74
53 939 Charpentier Barbara F 01:22:28,33
54 929 CAVRINI ERIC H 01:22:29,20
55 932 CHAGNAUD Patrice H 01:22:36,94
56 1062 Guibert Benjamin H 01:22:47,70
57 1233 TALARCZYK JC H 01:22:47,72
58 1283 Lameda-Waksmann Alexis H 01:22:53,69
59 1156 Papinko Mickael H 01:22:57,21
60 1007 FIGEAC FRANCK H 01:23:11,39
61 1196 Revillon Olivier H 01:23:13,44
62 1172 Piana Adrien H 01:23:21,81
63 1297 LLULL FONZO Estefania F 01:23:25,33
64 1257 Jolidon Katy F 01:23:25,43
65 999 ESCLANGON Arnaud H 01:23:29,84
66 971 de saint mars arthur H 01:23:32,30
67 876 Bastidon Nicolas H 01:23:35,15
68 1243 Toutain Pierre H 01:23:43,62
69 1292 COPIN Clémentine F 01:23:44,48
70 1083 labastugue jean christophe H 01:23:51,60
71 1008 fissellier benoit H 01:23:55,89
72 960 Creche Remy H 01:24:00,88
73 1150 NUIAOUET TRISTAN H 01:24:03,99
74 1079 Khatchadourian Ara H 01:24:09,33
75 921 Carruel Guillaume H 01:24:17,40
76 890 BON Kévin H 01:24:21,90
77 1289 GASSER Jerome H 01:24:57,96
78 1032 GERACI Ugo H 01:24:58,18
79 1111 Leroux Mickael H 01:24:58,42
80 1210 Sabatier Lucas H 01:24:58,50
81 1112 Lesage Mélissa F 01:24:58,55
82 1235 TEDESCO-oricchiella Nicolas H 01:25:00,14
83 1245 Tullii Joachim H 01:25:00,33
84 1236 TEPPAZ ALEXANDRE H 01:25:02,85
85 1260 VISIER Gabriel H 01:25:08,25
86 1219 Severac Benjamin H 01:25:09,40
87 923 Carruel Romain H 01:25:10,36
88 1070 Izaac Jean Marie H 01:25:12,41
89 1175 DOUXAMI Richard H 01:25:16,26
90 1056 Grirane Youcef H 01:25:16,65
91 1071 Jarre Pierre Philippe H 01:25:18,87
92 862 autenzio alexandre H 01:25:23,15
93 1004 Ferrando Philippe H 01:25:29,41
94 1268 Zarifeh Joe H 01:25:53,27
95 1128 Martin Jeremi H 01:25:57,63
96 1234 Delattre Fanny F 01:25:58,72
97 1216 SENIA Cyril H 01:25:59,05
98 925 cassagneau pierre H 01:26:13,92
99 1101 le souder David H 01:26:15,77
100 1214 Saunier François H 01:26:42,15
101 952 Clayessens Bastien H 01:26:46,98
102 968 de Minvielle Fabrice H 01:27:07,14
103 1299 David-Hine Mathieu H 01:27:15,89
104 1199 RIOULT Julien H 01:27:19,71
105 1168 PERRUCHIO Alexandre H 01:27:29,85
106 1059 Gruyelle Willy H 01:27:38,20
107 1250 VASSELIN HUACO Ralph H 01:28:03,08
108 1227 Stekly Victor H 01:28:14,31
109 1099 LE BLAN Barthélémy H 01:28:17,42
110 1016 FREDERIC Johanna F 01:28:24,86
111 1006 tardieu frederic H 01:28:34,92
112 1279 Loschetter Thibaut H 01:28:38,68
113 967 de leusse guillaume H 01:28:55,54
114 1019 Garcia Benjamin H 01:29:31,22
115 947 Christiaens Hanaé F 01:29:40,95
116 1193 Renneteau Thomas H 01:29:43,10
117 1027 Sebastier Clément H 01:30:05,33
118 1078 JOURNET Stéphane H 01:30:05,72
119 1160 patte suchetet frederic H 01:30:10,70
120 899 BOURLIER HERVE JACQUES H 01:30:14,24
121 907 Bregliano jean victor H 01:31:05,74
122 1131 Matthieu Sorin H 01:31:14,14
123 1200 Robert félicité F 01:31:21,26
124 846 AGRIFOGLIO Mathieu H 01:31:26,69
125 1222 Leygue Samantha F 01:31:32,55
126 987 Du Puch Xavier H 01:31:37,02
127 1157 Paradiso Vincent H 01:31:54,71
128 992 CERRATO FABIEN H 01:31:59,28
129 1088 LAJUGIE Thomas H 01:32:08,17
130 1133 MERLIN Zoe F 01:32:18,53
131 1177 pitollat guillaume H 01:32:28,12
132 1339 Armitano Anna-Isabel F 01:32:33,77
133 951 Christophe Lambot H 01:33:00,08
134 1220 Severac Romain H 01:33:10,33
135 1242 TORRES-FERRAFIAT Sebastien H 01:33:16,22
136 998 Enee Christophe H 01:33:32,06
137 928 Catala Berenice F 01:33:38,73
138 1287 MICHELET Paule F 01:33:53,04
139 1188 Rault Charlotte F 01:33:56,72
140 1125 Malet Arthur H 01:34:00,02
141 1189 Rehazek André H 01:34:02,71
142 917 Carbillet Louis-Daniel H 01:34:10,47
143 1298 lafon sylvain H 01:34:13,99
144 878 Bayle Vincent H 01:34:19,91
145 1039 GIRARDET Caroline F 01:34:35,30
146 859 AUBRY Alexis H 01:35:08,32
147 1005 FERRIER Clément H 01:35:46,72
148 1012 FOURCADE Dominique H 01:36:01,73
149 940 CHARPENTIER Gilles H 01:36:08,50
150 1158 Pasini Andrea H 01:36:16,59
151 1126 MALTERRE Gérard H 01:36:20,25
152 983 BERTHEAUME Emilie F 01:36:21,34
153 1290 Grenier Aurore F 01:36:32,09
154 1276 Garnier Thierry H 01:36:33,69
155 1201 ROBERT Pascal H 01:36:40,26
156 994 Elamraoui Zoubir H 01:37:28,09
157 1067 HERVIO Olivier H 01:37:46,89
158 895 Bonneviale Brice H 01:38:03,64
159 1151 Oza Armelle F 01:38:18,09
160 1244 TREFAULT CAROLINE F 01:38:19,19
161 1166 PERIN Vincent H 01:38:23,88
162 1143 Motte Voisin Cyrille H 01:38:27,76
163 910 Caffi Alain H 01:38:32,50
164 936 CHARLES Axel H 01:38:48,04
165 857 Assouline Michael H 01:38:58,77
166 1180 Lebec Baptiste H 01:39:02,53
167 1246 Turnbow John Travis H 01:39:03,39
168 984 DIETSCH VERONIQUE F 01:39:05,97
169 1021 GARGANO SIGRID F 01:39:15,28
170 1284 Richaud PATRICE H 01:39:55,48
171 976 Decrand Fabien H 01:40:23,34
172 1224 Simeone Pierre H 01:40:41,21
173 1017 Gabriella Hakim F 01:41:07,89
174 1261 Volle Solange F 01:41:21,37
175 972 De sermet Arnaud H 01:41:43,78
176 1149 Noraz Alice F 01:41:50,24
177 872 BARONNET Bruno H 01:41:56,12
178 1100 Le Louarn Gildas H 01:41:56,85
179 1262 Weber Mathilde F 01:41:59,12
180 1258 VIDIL Guillaume H 01:42:04,51
181 1038 Giordanetto Florent H 01:42:06,60
182 1212 SALMON THIERRY H 01:42:30,28
183 1102 Le Toullec Maxime H 01:42:52,78
184 1084 Lacrosnière Axel H 01:42:58,46
185 915 PERNOD Celine F 01:43:33,46
186 1310 lefebvre maud F 01:43:41,33
187 970 de Régloix Stanislas H 01:43:51,99
188 1295 Christiaens Eléonore F 01:43:59,89
189 865 Ayache Philippe H 01:44:00,36
190 1047 GOUAS Christian H 01:44:16,73
191 1165 PERIN Gaëlle F 01:44:18,70
192 1226 Soloveva Nadezhda F 01:44:18,73
193 879 BECK Emmanuel H 01:44:20,19
194 1145 Nathanael Cogrel H 01:44:22,92
195 1278 HA Valerie F 01:44:33,68
196 916 Canovaggio François-Xavier H 01:44:35,53
197 958 Couesnon Aurore F 01:44:42,11
198 1127 MARIE-JOSEPH Vianney H 01:45:00,20
199 891 Bonifaz Maria F 01:45:33,08
200 1046 GOUAS Alain H 01:45:34,54
201 881 Bernardini Laura F 01:45:42,03
202 973 De sermet Gabrielle F 01:46:49,05
203 934 CHAISE FLORA F 01:47:27,12
204 1500 Chekroun Anthony H 01:48:40,08
205 1202 RODRIGUEZ Didier H 01:49:49,36
206 1033 Ginger John H 01:50:05,08
207 1176 Piperoglou Nicolas H 01:51:00,08
208 1275 Monville Florence F 01:51:50,87
209 1230 Sunyach Claire F 01:52:03,50
210 1123 Mailhe Lucie F 01:52:30,75
211 955 COMBOROURE pierre H 01:52:42,12
212 1086 Bintz Elsa F 01:52:47,12
213 1041 gobert christine F 01:52:52,99
214 1237 Tessonneau Alexandre H 01:53:34,23
215 1057 GRODECOEUR Isabelle F 01:54:57,75
216 888 BOIRON Olivier H 01:55:11,11
217 935 chaise jean.bernard H 01:55:17,34
218 1255 Vergé Noémie F 01:56:08,21
219 944 Chevallard Thibaud H 01:56:21,00
220 1304 Cassir Nadim H 01:56:22,77
221 1066 HALLEPEE SERGE H 01:56:36,26
222 1266 Yedutenko Matvii H 01:57:13,65
223 1249 Van Haetsdaele Bruno H 02:00:56,28
224 1301 diep alain H 02:01:36,41
225 1248 URVOAS Louis-Jacques H 02:03:18,36
226 957 CORNAND LAURENCE F 02:07:26,46
227 909 Burgat François H 02:07:58,87
228 1159 Patte Suchetet Christine F 02:09:47,38
229 1265 Williams Denis H 02:12:26,15
230 1281 foca anne-marie isabelle F 02:14:27,99
231 1303 Christiaens Isabelle F 02:14:53,66
232 950 Christiaens Luc H 02:15:08,01
- 1277 MAUDUIT JEAN PAUL H Abandon
- 1130 Massey Romain H Abandon
Généré le 19/09/2021 16:01:04